Hourly Data Report for October 08, 2015

All times are specified in Local Standard Time (LST). Add 1 hour to adjust for Daylight Saving Time where and when it is observed.

IQALUIT CLIMATE
NUNAVUT

63°44'50.000" N
68°32'40.000" W
33.50 m
2402592
71321
XFB

Download Data

Hourly Data (October 2015)
Hourly Data Report for October 8, 2015
Temp Definition
°C
Dew Point Temp Definition
°C
Rel Hum Definition
%
Wind Dir Definition
10's deg

Wind Spd Definition
km/h
Visibility Definition
km
Stn Press Definition
kPa
Hmdx Definition


Wind Chill Definition


Weather Definition


TIME
00:00 -2.2 -3.3 92 12 7   99.65   -5 LegendNANA
01:00 -2.1 -3.7 89 13 8   99.66   -5 LegendNANA
02:00 -2.2 -3.6 90 13 9   99.66   -6 LegendNANA
03:00 -2.1 -3.5 90 13 9   99.69   -6 LegendNANA
04:00 -2.3 -3.5 91 13 10   99.70   -6 LegendNANA
05:00 -3.2 -4.5 91 11 8   99.71   -6 LegendNANA
06:00 -3.4 -4.6 91 12 7   99.76   -6 LegendNANA
07:00 -3.1 -4.6 90 13 3   99.78   -4 LegendNANA
08:00 -2.1 -4.0 87 13 6   99.81   -4 LegendNANA
09:00 -1.7 -3.3 88 14 7   99.83   -4 LegendNANA
10:00 -1.5 -3.2 88 13 9   99.85   -5 LegendNANA
11:00 -1.2 -2.8 89 14 7   99.87   -4 LegendNANA
12:00 -1.2 -2.8 89 16 4   99.90   -3 LegendNANA
13:00 -1.1 -2.7 89 15 3   99.93   -2 LegendNANA
14:00 -1.2 -2.8 89 18 2   99.98   -2 LegendNANA
15:00 -1.4 -2.3 94 28 5   100.03   -3 LegendNANA
16:00 -1.8 -2.5 95 30 4   100.06   -3 LegendNANA
17:00 -2.1 -2.8 95 31 14   100.11   -7 LegendNANA
18:00 -2.9 -4.2 90 33 24   100.16   -10 LegendNANA
19:00 -3.1 -4.7 89 33 19   100.18   -9 LegendNANA
20:00 -2.6 -5.0 84 33 20   100.21   -9 LegendNANA
21:00 -2.8 -5.0 85 33 17   100.20   -8 LegendNANA
22:00 -3.0 -5.1 86 33 14   100.19   -8 LegendNANA
23:00 -3.3 -5.8 83 32 10   100.17   -7 LegendNANA

Notes on Data Quality.

Legend

  • E = Estimated
  • M = Missing
  • NA = Not Available
  • ‡ = Partner data that is not subject to review by the National Climate Archives
Date modified: